Regional Weather Roundup
Issued by NWS

Home | Current Version | Previous Version | Graphics & Text | Print | Product List | Glossary On
Versions: 1 2 3 4 5 6 7 8 9 10 11 12 13 14 15 16 17 18 19 20 21 22 23 24 25 26 27 28 29 30 31 32 33 34 35 36 37 38 39 40 41 42 43 44 45 46 47 48 49 50
000
ASUS43 KLOT 251103
RWRIL

ILLINOIS REGIONAL WEATHER ROUNDUP
NATIONAL WEATHER SERVICE CHICAGO/ROMEOVILLE IL
500 AM CST SUN FEB 25 2018

NOTE: "FAIR" INDICATES FEW OR NO CLOUDS BELOW 12,000 FEET WITH NO
SIGNIFICANT WEATHER AND/OR OBSTRUCTIONS TO VISIBILITY.

* THESE STATIONS ARE NOT UNDER NWS QUALITY CONTROL. THEY ALSO MAY NOT
  REPORT WEATHER SUCH AS PRECIPITATION OR FOG.

ILZ001-002-007-009-015-016-024-251200-
NORTHWEST ILLINOIS

CITY           SKY/WX    TMP DP  RH WIND       PRES   REMARKS
MOLINE         CLOUDY    34  27  75 W20G28    29.79R WCI  23
SAVANNA*       CLOUDY    32  26  76 W21G30    29.75R WCI  20
$$

ILZ003-004-008-010-011-017-018-251200-
NORTH CENTRAL ILLINOIS

CITY           SKY/WX    TMP DP  RH WIND       PRES   REMARKS
ROCKFORD       CLOUDY    32  25  75 W18G30    29.73R WCI  20
FREEPORT*      CLOUDY    31  24  74 W26G36    29.73R WCI  17
ROCHELLE*      CLOUDY    32  27  81 W23G37    29.76R WCI  19
DE KALB*       CLOUDY    32  28  83 W22G32    29.73R WCI  19
PERU*          CLOUDY    33  27  79 W22G32    29.79R WCI  21
$$

ILZ005-006-012>014-019>023-251200-
NORTHEAST ILLINOIS

CITY           SKY/WX    TMP DP  RH WIND       PRES   REMARKS
CHICAGO-OHARE  CLOUDY    34  26  72 W24G43    29.71R WCI  21
CHICAGO-MIDWAY CLOUDY    35  27  72 W30G47    29.74R WCI  22
AURORA         CLOUDY    33  28  81 W26G37    29.74R WCI  20
LANSING*       CLOUDY    34  29  83 W21G38    29.76R WCI  22
JOLIET*        CLOUDY    35  28  75 W17G28    29.78R WCI  25
WAUKEGAN       CLOUDY    33  25  72 W16G36    29.65R WCI  23
DUPAGE AIRPORT CLOUDY    33  26  75 W30G45    29.73R WCI  19
KANKAKEE*      CLOUDY    35  27  75 W28G40    29.83R WCI  21
WHEELING       CLOUDY    35  27  72 W16G25    29.71R WCI  25
MORRIS*        CLOUDY    34  27  76 W32G39    29.77R WCI  20
ROMEOVILLE*    CLOUDY    33  29  85 W21G29    29.77R WCI  21
NORTHERLY ISL    N/A     35  27  73 W15         N/A  WCI  25
$$

LMZ740>746-251200-
SOUTHERN LAKE MICHIGAN

STATION/POSITION SKY/WX   TEMP    WIND        PRES    VSBY  WAVE
                          AIR SEA DIR/SP/G                  HT/PER
                          (F)     (DEG/KT/KT) (MB)    (MI)  (FT/S)
HARRISON CRIB              36     260/ 33/ 37   N/A
BURNHAM HARBOR             35     260/ 12/ 26   N/A
CALUMET HARBOR             35     230/ 16/ 27 1006.1R
BURNS HARBOR               36     250/ 31/ 37 1007.5R
MICHIGAN CITY              35     220/ 34/ 38   N/A
$$

ILZ025>027-034>036-040-047-049-050-058-095>099-251200-
WEST-CENTRAL ILLINOIS

CITY           SKY/WX    TMP DP  RH WIND       PRES   REMARKS
QUINCY         CLEAR     32  27  81 W13       29.90R WCI  22
GALESBURG*     CLOUDY    33  30  88 W16G22    29.84R WCI  22
MACOMB*        MOCLDY   N/A N/A N/A W14G21    29.87R
JACKSONVILLE*  CLEAR     33  29  85 SW14      29.90S WCI  23
PITTSFIELD*    CLEAR     33  29  85 W10G16    29.92R WCI  25
$$

ILZ028>032-037-038-041>044-048-051>054-059>061-251200-
CENTRAL ILLINOIS

CITY           SKY/WX    TMP DP  RH WIND       PRES   REMARKS
BLOOMINGTON    CLOUDY    33  29  85 W15G24    29.85R WCI  23
DECATUR        MOCLDY    34  28  79 W16G23    29.91R WCI  24
PEORIA         CLOUDY    34  28  79 W13G23    29.85R WCI  25
LACON*         CLOUDY    34  29  81 W10G21    29.82R WCI  26
LINCOLN*       CLOUDY    35  31  85 W7        29.89R WCI  29
SPRINGFIELD    MOCLDY    35  30  82 W15       29.90R WCI  25
TAYLORVILLE    FAIR      33  30  88 W12       29.93R WCI  24
$$

ILZ033-039-045-046-055>057-062-063-251200-
EAST-CENTRAL ILLINOIS

CITY           SKY/WX    TMP DP  RH WIND       PRES   REMARKS
CHAMPAIGN      FAIR      33  30  88 W18       29.89R WCI  22
DANVILLE*      CLOUDY    35  30  81 W22G28    29.86R WCI  23
RANTOUL*       CLOUDY    36  32  85 W17       29.88R WCI  26
MATTOON        FAIR      34  29  82 W12G20    29.92R WCI  25
PARIS*         FAIR      35  31  87 W14G22    29.93R WCI  25
$$

ILZ079-100>102-251200-
SOUTHWEST ILLINOIS

CITY           SKY/WX    TMP DP  RH WIND       PRES   REMARKS
ALTON          CLEAR     33  32  98 SW8       29.97R WCI  26
BELLEVILLE     CLEAR     35  29  79 SW8       29.97R WCI  29
CAHOKIA*       CLEAR     36  29  75 W7        29.98R WCI  30
SPARTA*        PTCLDY    37  32  82 W6        30.00R WCI  32
$$

ILZ064>066-069>071-074>076-080>082-084>086-088>090-092>094-251200-
SOUTH-CENTRAL ILLINOIS

CITY           SKY/WX    TMP DP  RH WIND       PRES   REMARKS
CARBONDALE     FAIR      40  35  83 W7        30.00R
CAIRO*         FAIR      43  35  74 W7        30.03R
EFFINGHAM*     FAIR      36  31  82 SW14G20   29.97R WCI  27
MARION         FAIR      41  33  74 CALM      30.01R
MT. VERNON     FAIR      39  31  72 W7        29.98R WCI  34
CENTRALIA*     CLOUDY    38  35  85 SW9       29.97R WCI  32
SALEM*         FAIR      38  33  82 W7        29.96S WCI  33
METROPOLIS*    FAIR      44  37  74 NW7       30.02R
$$

ILZ067-068-072-073-078-083-087-091-251200-
SOUTHEAST ILLINOIS

CITY           SKY/WX    TMP DP  RH WIND       PRES   REMARKS
LAWRENCEVILLE  FAIR      41  34  76 W9        29.98R
FLORA*         FAIR      40  32  72 W10       29.98R
FAIRFIELD*     FAIR      41  35  79 MISG      29.97R
HARRISBURG*    FAIR      41  37  84 W9        30.00R
ROBINSON*      MOCLDY    39  33  77 W15G25    29.97R WCI  31
CARMI*         FAIR      42  37  80 W12       29.98R
$$

ABBREVIATIONS USED IN REMARKS
   TC - TEMPERATURE IN CELSIUS
  WCI - WIND CHILL INDEX
   HX - HEAT INDEX
  VSB - VISIBILITY
$$





USA.gov is the U.S. government's official web portal to all federal, state and local government web resources and services.